This is the latest recevied weather packets stored in our database for station/object VE1DX. If no packets are shown the sender has not sent any weather packets the latest 10 day(s).
| Time | Temp. | Humidity | Pressure | Rain* | Wind** | Luminosity | Snow |
|---|---|---|---|---|---|---|---|
| 1777689015 | 7.78° C | 94% | 1007.6 hPa | 0 mm | - | - | - |
| 1777688715 | 7.78° C | 94% | 1007.5 hPa | 0 mm | - | - | - |
| 1777687815 | 7.78° C | 94% | 1007.4 hPa | 0 mm | - | - | - |
| 1777687515 | 7.78° C | 94% | 1007.4 hPa | 0 mm | - | - | - |
| 1777674317 | 8.33° C | 94% | 1004.8 hPa | 0.51 mm | - | - | - |
| 1777672818 | 8.33° C | 94% | 1004.7 hPa | 0.76 mm | - | - | - |
| 1777671918 | 8.33° C | 94% | 1004.3 hPa | 0.51 mm | - | - | - |
| 1777671317 | 8.33° C | 94% | 1004.4 hPa | 0.51 mm | - | - | - |
| 1777671017 | 8.33° C | 94% | 1004.4 hPa | 0.51 mm | - | - | - |
| 1777670417 | 8.33° C | 94% | 1004.5 hPa | 0.51 mm | - | - | - |
| 1777670117 | 8.33° C | 94% | 1004.5 hPa | 0.51 mm | - | - | - |
| 1777669517 | 8.33° C | 94% | 1004.6 hPa | 0.51 mm | - | - | - |
| 1777668618 | 8.33° C | 94% | 1004.7 hPa | 0.76 mm | - | - | - |
| 1777667117 | 7.78° C | 94% | 1004.5 hPa | 1.52 mm | - | - | - |
| 1777665318 | 7.78° C | 94% | 1004.3 hPa | 3.3 mm | - | - | - |
| 1777664718 | 7.78° C | 94% | 1004.3 hPa | 3.3 mm | - | - | - |
| 1777662618 | 7.78° C | 94% | 1004.6 hPa | 3.3 mm | - | - | - |
| 1777662317 | 7.78° C | 94% | 1004.7 hPa | 3.3 mm | - | - | - |
| 1777660218 | 7.78° C | 94% | 1005.3 hPa | 5.33 mm | - | - | - |
| 1777659917 | 7.78° C | 94% | 1005.3 hPa | 5.59 mm | - | - | - |
| 1777659317 | 7.78° C | 94% | 1005.4 hPa | 5.59 mm | - | - | - |
| 1777659017 | 8.33° C | 94% | 1005.4 hPa | 5.59 mm | - | - | - |
| 1777656318 | 8.33° C | 94% | 1005.6 hPa | 1.78 mm | - | - | - |
| 1777656017 | 8.33° C | 94% | 1005.7 hPa | 1.78 mm | - | - | - |
| 1777654518 | 8.33° C | 94% | 1006 hPa | 0.51 mm | - | - | - |
* Rain latest hour (hover to see other rain measurements)
** Current wind speed in m/s (hover to see current wind gust speed)